Date,TemperatureHighF,TemperatureAvgF,TemperatureLowF,DewpointHighF,DewpointAvgF,DewpointLowF,HumidityHigh,HumidityAvg,HumidityLow,PressureMaxIn,PressureMinIn,WindSpeedMaxMPH,WindSpeedAvgMPH,GustSpeedMaxMPH,PrecipitationSumIn
2013-1-1,40,34,31,37,32,29,95,92,84,29.91,29.76,2,0,2,0.00
2013-1-2,41,33,28,36,30,26,95,91,84,29.76,29.60,1,0,1,0.01
2013-1-3,41,33,27,34,30,25,94,88,70,29.60,29.50,2,0,2,0.35
2013-1-4,46,41,36,44,39,34,95,94,90,29.70,29.57,4,0,4,0.03
2013-1-5,44,41,40,42,40,38,96,94,93,29.61,29.51,2,0,2,0.06
2013-1-6,44,41,37,41,39,36,95,93,89,29.58,29.37,5,0,5,0.03
2013-1-7,51,45,41,47,43,39,96,92,85,29.56,29.20,6,1,6,0.02
2013-1-8,49,45,40,48,43,38,96,93,81,29.57,29.10,13,2,13,1.05
2013-1-9,48,41,35,47,40,34,96,94,91,29.35,29.08,8,0,8,0.76
2013-1-10,37,35,32,36,33,30,95,94,89,29.53,29.34,2,0,2,0.02
2013-1-11,36,32,28,30,26,21,94,78,54,29.73,29.52,3,0,3,0.00
2013-1-12,36,30,26,31,26,23,93,87,74,29.84,29.71,1,0,1,0.00
2013-1-13,36,31,28,30,28,25,91,87,75,29.90,29.83,1,0,1,0.01
2013-1-14,38,31,27,33,28,25,91,88,79,29.97,29.86,1,0,1,0.00
2013-1-15,37,33,28,34,31,26,93,91,89,30.11,29.96,2,0,2,0.00
2013-1-16,40,32,28,36,30,26,95,93,85,30.08,29.92,2,0,2,0.00
2013-1-17,36,33,29,35,31,28,95,95,93,29.93,29.69,1,0,1,0.00
2013-1-18,36,34,31,35,33,30,96,95,95,29.75,29.66,1,0,1,0.00
2013-1-19,40,36,35,38,35,33,96,94,91,29.79,29.74,2,0,2,0.00
2013-1-20,42,38,33,40,36,31,96,94,89,29.80,29.67,2,0,2,0.00
2013-1-21,37,36,32,36,34,30,96,96,95,29.68,29.54,2,0,2,0.00
2013-1-22,38,34,30,36,32,28,97,95,94,29.54,29.32,1,0,1,0.00
2013-1-23,42,39,35,41,38,34,96,96,94,29.54,29.25,5,0,5,0.32
2013-1-24,43,40,38,42,38,37,97,96,93,29.61,29.45,3,0,3,0.18
2013-1-25,49,43,38,47,41,35,97,93,80,29.47,29.32,3,0,3,0.01
2013-1-26,43,40,36,41,38,35,95,93,90,29.44,29.28,4,0,4,0.14
2013-1-27,41,37,32,40,36,31,96,94,90,29.46,29.39,3,0,3,0.00
2013-1-28,40,37,34,39,36,32,96,96,94,29.50,29.41,0,0,0,0.12
2013-1-29,46,41,38,45,40,37,97,96,96,29.75,29.49,2,0,2,0.15
2013-1-30,47,44,42,46,43,41,97,97,95,29.78,29.71,2,0,2,0.02
2013-1-31,50,45,43,47,44,42,97,95,86,29.80,29.68,5,0,5,0.03
2013-2-1,48,44,40,45,42,38,96,93,87,29.82,29.74,2,0,2,0.00
2013-2-2,45,41,38,42,40,36,96,94,90,29.79,29.66,2,0,2,0.00
2013-2-3,48,42,38,46,41,37,97,94,89,29.71,29.61,3,0,3,0.01
2013-2-4,49,44,41,44,42,40,95,91,83,29.62,29.29,5,0,5,0.00
2013-2-5,47,44,41,45,42,40,96,93,87,29.32,29.23,6,1,6,0.37
2013-2-6,45,42,40,43,41,39,97,94,91,29.44,29.19,7,1,7,0.32
2013-2-7,46,40,33,41,37,31,97,90,76,29.60,29.20,6,0,6,0.09
2013-2-8,44,36,30,41,35,29,96,93,85,29.71,29.60,1,0,1,0.04
2013-2-9,46,40,36,43,38,34,96,94,87,29.75,29.67,1,0,1,0.03
2013-2-10,42,40,39,40,39,38,96,95,94,29.79,29.73,1,0,1,0.00
2013-2-11,47,41,38,43,40,37,96,93,85,29.76,29.73,1,0,1,0.02
2013-2-12,51,45,40,47,42,39,96,92,83,29.80,29.66,3,0,3,0.00
2013-2-13,47,44,41,45,42,40,95,93,87,29.90,29.70,0,0,0,0.01
2013-2-14,46,44,41,45,42,39,95,94,91,29.96,29.88,0,0,0,0.01
2013-2-15,52,45,37,46,42,35,96,91,79,29.96,29.59,0,0,0,0.00
2013-2-16,51,43,37,46,41,36,96,92,82,29.60,29.52,0,0,0,0.00
2013-2-17,45,39,36,41,37,34,94,91,81,29.65,29.51,0,0,0,0.00
2013-2-18,47,40,36,41,36,34,95,88,75,29.51,29.18,0,0,0,0.01
2013-2-19,48,40,34,43,36,32,96,87,68,29.42,29.15,0,0,0,0.04
2013-2-20,44,39,34,40,36,32,95,92,82,29.45,29.39,0,0,0,0.10
2013-2-21,45,40,36,40,37,34,95,91,80,29.48,29.40,0,0,0,0.00
2013-2-22,47,41,36,45,38,32,96,90,77,29.44,29.06,0,0,0,0.30
2013-2-23,49,38,31,41,34,29,96,86,66,29.77,29.29,0,0,0,0.00
2013-2-24,44,40,37,40,38,34,94,90,84,29.76,29.35,0,0,0,0.10
2013-2-25,52,40,32,39,35,29,95,82,46,29.71,29.26,0,0,0,0.09
2013-2-26,46,38,30,39,34,28,94,87,71,29.73,29.59,0,0,0,0.06
2013-2-27,48,41,37,44,39,35,95,91,78,29.70,29.60,0,0,0,0.10
2013-2-28,52,46,40,50,44,38,96,93,89,29.72,29.60,0,0,0,0.32
2013-3-1,56,51,49,51,48,46,96,90,82,29.75,29.67,0,0,0,0.01
2013-3-2,55,49,37,50,45,35,91,86,75,29.68,29.46,8,1,8,0.01
2013-3-3,49,39,33,42,35,30,94,86,66,29.71,29.60,3,0,3,0.00
2013-3-4,49,39,31,38,32,28,95,78,46,29.71,29.35,5,0,5,0.01
2013-3-5,49,41,36,42,37,32,94,86,68,29.35,29.14,4,0,4,0.24
2013-3-6,43,40,37,41,38,35,94,93,90,29.30,29.00,4,0,4,0.38
2013-3-7,52,43,38,46,41,36,96,91,77,29.51,29.30,3,0,3,0.05
2013-3-8,54,41,34,43,36,32,96,86,64,29.65,29.49,5,0,5,0.00
2013-3-9,55,40,32,45,37,31,96,87,64,29.90,29.65,2,0,2,0.00
2013-3-10,47,42,35,43,39,33,95,90,83,29.90,29.83,2,0,2,0.00
2013-3-11,50,45,41,45,42,40,95,90,81,29.85,29.55,2,0,2,0.05
2013-3-12,57,50,45,51,47,43,95,90,76,29.55,29.45,6,2,6,0.03
2013-3-13,54,51,48,50,47,46,94,88,82,29.59,29.49,4,1,4,0.00
2013-3-14,58,51,47,47,44,40,94,78,63,29.54,29.43,7,1,7,0.01
2013-3-15,60,50,44,50,46,42,95,85,67,29.60,29.54,0,0,0,0.01
2013-3-16,54,45,35,46,40,31,93,81,56,29.55,29.27,0,0,0,0.00
2013-3-17,50,39,31,41,34,28,93,82,60,29.59,29.38,0,0,0,0.00
2013-3-18,58,43,35,43,36,31,90,77,54,29.66,29.49,0,0,0,0.01
2013-3-19,54,41,34,40,36,31,93,83,49,29.65,29.01,2,0,2,0.79
2013-3-20,53,46,36,48,41,30,96,82,64,29.42,28.77,3,0,3,1.00
2013-3-21,48,38,32,38,33,29,92,82,64,29.62,29.41,0,0,0,0.06
2013-3-22,50,37,32,39,33,29,94,84,57,29.78,29.61,0,0,0,0.05
2013-3-23,52,40,33,39,33,28,92,76,49,29.80,29.71,0,0,0,0.00
2013-3-24,56,42,31,41,33,28,92,74,44,29.71,29.54,0,0,0,0.00
2013-3-25,62,46,34,41,34,30,93,67,36,29.54,29.37,4,0,4,0.00
2013-3-26,59,49,42,44,39,34,81,69,53,29.44,29.38,3,0,3,0.00
2013-3-27,57,48,43,47,42,38,89,79,64,29.42,29.36,4,0,4,0.00
2013-3-28,61,49,43,52,45,40,94,87,68,29.57,29.41,2,0,2,0.22
2013-3-29,65,51,41,52,44,38,95,80,49,29.67,29.57,4,1,4,0.01
2013-3-30,70,51,36,51,41,33,94,72,39,29.68,29.50,0,0,0,0.00
2013-3-31,69,53,43,49,42,37,85,68,46,29.50,29.34,0,0,0,0.00
2013-4-1,65,50,41,52,44,38,92,80,59,29.56,29.39,2,0,2,0.00
2013-4-2,58,48,41,48,43,39,93,83,69,29.61,29.56,2,0,2,0.00
2013-4-3,63,50,42,49,44,39,92,80,57,29.61,29.38,0,0,0,0.00
2013-4-4,52,49,46,50,46,42,94,90,84,29.38,29.06,0,0,0,0.60
2013-4-5,57,50,46,50,47,44,95,90,76,29.27,29.12,7,1,7,0.51
2013-4-6,57,48,43,47,43,39,95,85,60,29.32,29.08,7,1,7,0.30
2013-4-7,48,43,39,45,41,36,94,92,88,29.31,28.96,0,0,0,0.93
2013-4-8,56,46,40,49,43,39,95,89,75,29.68,29.31,0,0,0,0.03
2013-4-9,56,47,40,46,42,38,95,82,62,29.75,29.59,3,0,3,0.00
2013-4-10,64,52,44,55,46,40,94,81,60,29.65,29.34,0,0,0,0.33
2013-4-11,53,46,41,46,41,38,92,83,66,29.71,29.60,0,0,0,0.00
2013-4-12,46,42,38,42,39,36,94,88,74,29.60,29.08,0,0,0,0.11
2013-4-13,57,43,33,46,38,31,94,83,61,29.41,29.14,0,0,0,0.11
2013-4-14,54,43,36,46,38,32,94,83,59,29.42,29.34,0,0,0,0.03
2013-4-15,58,45,34,43,37,31,93,76,52,29.59,29.35,0,0,0,0.00
2013-4-16,62,45,34,44,35,29,93,71,31,29.81,29.60,0,0,0,0.00
2013-4-17,62,46,36,46,36,29,83,70,44,29.85,29.81,0,0,0,0.00
2013-4-18,52,46,39,46,41,34,88,82,76,29.85,29.58,0,0,0,0.00
2013-4-19,56,50,48,52,48,45,93,90,87,29.60,29.47,0,0,0,0.36
2013-4-20,56,49,45,52,46,43,94,90,79,29.69,29.60,0,0,0,0.02
2013-4-21,52,46,38,47,43,36,94,89,80,29.78,29.64,0,0,0,0.10
2013-4-22,65,46,34,41,32,23,94,64,23,29.94,29.78,0,0,0,0.00
2013-4-23,66,48,34,39,32,27,85,57,25,29.84,29.67,0,0,0,0.00
2013-4-24,70,53,38,46,37,32,88,59,30,29.74,29.48,0,0,0,0.00
2013-4-25,78,58,42,46,40,34,86,57,30,29.57,29.46,0,0,0,0.00
2013-4-26,69,53,42,52,44,38,89,73,49,29.68,29.56,0,0,0,0.00
2013-4-27,58,52,48,48,45,42,84,75,64,29.62,29.55,0,0,0,0.00
2013-4-28,59,51,46,50,45,40,89,79,59,29.63,29.35,0,0,0,0.01
2013-4-29,63,50,41,46,40,34,90,71,41,29.57,29.32,0,0,0,0.01
2013-4-30,56,45,35,41,35,31,90,69,51,29.86,29.56,0,0,0,0.00
2013-5-1,65,49,34,41,33,27,92,59,25,29.99,29.86,0,0,0,0.00
2013-5-2,67,52,38,45,36,29,83,56,29,29.96,29.79,0,0,0,0.00
2013-5-3,76,58,49,47,41,36,70,55,30,29.80,29.65,0,0,0,0.00
2013-5-4,83,65,49,51,41,31,72,45,18,29.66,29.44,0,0,0,0.00
2013-5-5,85,64,48,52,44,37,72,51,22,29.44,29.21,0,0,0,0.00
2013-5-6,87,68,51,53,47,40,73,50,29,29.29,29.20,0,0,0,0.00
2013-5-7,78,59,48,56,49,43,88,72,44,29.42,29.26,0,0,0,0.00
2013-5-8,73,57,48,57,49,43,90,77,52,29.57,29.42,0,0,0,0.00
2013-5-9,75,56,45,58,49,42,92,79,46,29.64,29.55,0,0,0,0.00
2013-5-10,79,59,45,59,50,42,93,73,47,29.63,29.55,0,0,0,0.00
2013-5-11,84,64,52,58,52,47,86,67,35,29.60,29.42,0,0,0,0.00
2013-5-12,67,60,56,57,54,49,91,80,65,29.51,29.43,0,0,0,0.05
2013-5-13,65,57,54,54,51,49,87,79,60,29.46,29.36,0,0,0,0.05
2013-5-26,66,56,51,54,48,46,82,75,65,29.40,29.37,0,0,0,0.00
2013-5-27,59,53,49,56,50,44,91,88,81,29.38,29.13,0,0,0,0.42
2013-5-28,65,55,49,52,47,43,89,76,55,29.30,29.19,0,0,0,0.00
2013-5-29,58,52,48,52,48,44,91,86,80,29.38,29.12,0,0,0,0.20
2013-5-30,65,52,44,51,46,42,99,79,56,29.66,29.38,0,0,0,0.01
2013-5-31,66,55,47,52,46,42,99,75,47,29.77,29.66,0,0,0,0.00
2013-6-1,74,59,48,58,49,36,99,71,39,29.68,29.49,0,0,0,0.00
2013-6-2,77,61,-18,77,53,-19,99,76,38,29.52,29.48,0,0,0,0.03
2013-6-3,94,36,-39,94,27,-45,99,73,38,29.55,29.50,0,0,0,0.00
2013-6-4,77,60,46,57,50,43,93,71,43,29.56,29.47,0,0,0,0.00
2013-6-5,64,58,51,54,51,46,83,77,70,29.48,29.47,0,0,0,0.00
2013-6-6,79,64,50,58,52,47,93,68,41,29.49,29.45,0,0,0,0.00
2013-6-7,66,60,53,55,52,48,83,73,61,29.58,29.46,0,0,0,0.00
2013-6-8,68,59,52,56,50,46,84,73,56,29.61,29.53,0,0,0,0.00
2013-6-9,63,55,48,53,48,43,86,78,66,29.55,29.46,0,0,0,0.00
2013-6-10,71,57,46,53,48,43,88,71,48,29.46,29.31,0,0,0,0.00
2013-6-11,66,56,48,57,48,42,83,74,58,29.52,29.36,0,0,0,0.07
2013-6-12,66,52,45,50,45,41,91,78,49,29.57,29.52,0,0,0,0.00
2013-6-13,69,58,51,54,49,46,89,73,48,29.64,29.56,0,0,0,0.01
2013-6-14,65,56,49,53,49,45,86,77,58,29.65,29.49,0,0,0,0.00
2013-6-15,74,62,48,56,51,45,90,68,48,29.49,29.36,0,0,0,0.00
2013-6-16,78,60,50,61,52,46,89,75,51,29.52,29.42,0,0,0,0.00
2013-6-17,80,62,49,59,51,46,92,70,33,29.52,29.34,0,0,0,0.04
2013-6-18,76,62,53,52,48,44,89,64,37,29.40,29.32,0,0,0,0.01
2013-6-19,68,58,49,56,50,45,88,76,58,29.43,29.34,0,0,0,0.00
2013-6-20,64,56,52,54,51,48,92,83,70,29.53,29.37,0,0,0,0.12
2013-6-21,70,58,52,56,52,47,93,80,57,29.59,29.52,0,0,0,0.01
2013-6-22,81,62,48,59,52,45,92,71,41,29.56,29.30,0,0,0,0.00
2013-6-23,74,63,56,62,57,49,91,80,63,29.30,29.04,0,0,0,0.15
2013-6-24,72,62,56,59,55,52,92,79,57,29.13,29.00,0,0,0,0.02
2013-6-25,76,60,54,62,54,51,92,82,51,29.28,29.11,0,0,0,0.54
2013-6-26,68,60,54,63,56,52,93,86,74,29.50,29.27,0,0,0,0.29
2013-6-27,68,62,56,65,58,53,93,90,83,29.63,29.48,0,0,0,0.28
2013-6-28,87,70,56,70,61,54,95,77,45,29.63,29.48,0,0,0,0.01
2013-6-29,83,70,60,68,61,56,91,75,55,29.54,29.44,0,0,0,0.00
2013-6-30,89,70,56,67,59,51,88,70,39,29.46,29.30,0,0,0,0.00
2013-7-1,89,72,59,69,61,55,88,70,48,29.47,29.35,0,0,0,0.00
2013-7-2,84,67,56,65,57,52,91,74,46,29.54,29.47,0,0,0,0.00
2013-7-3,81,65,56,61,53,49,83,66,44,29.59,29.49,0,0,0,0.00
2013-7-4,74,62,54,58,53,48,86,74,56,29.56,29.46,0,0,0,0.00
2013-7-5,72,62,51,59,54,47,92,76,61,29.47,29.39,0,0,0,0.00
2013-7-6,78,63,52,58,53,48,92,74,44,29.41,29.31,0,0,0,0.00
2013-7-7,79,65,54,63,56,50,91,75,52,29.38,29.32,0,0,0,0.00
2013-7-8,80,62,54,62,55,50,90,78,51,29.53,29.38,0,0,0,0.00
2013-7-9,83,64,54,63,56,50,92,76,47,29.55,29.44,0,0,0,0.00
2013-7-10,72,60,53,60,53,47,89,77,63,29.50,29.39,0,0,0,0.00
2013-7-11,70,59,54,54,49,47,82,71,54,29.51,29.42,0,0,0,0.00
2013-7-12,68,58,50,55,50,44,86,75,55,29.54,29.44,0,0,0,0.00
2013-7-13,77,60,46,55,47,40,90,66,32,29.63,29.54,0,0,0,0.00
2013-7-14,80,63,48,56,49,43,88,62,39,29.56,29.43,0,0,0,0.00
2013-7-15,82,65,50,54,46,40,86,55,26,29.48,29.33,0,0,0,0.00
2013-7-16,88,71,54,54,48,42,73,47,23,29.33,29.26,0,0,0,0.00
2013-7-17,77,66,58,58,55,51,86,69,50,29.62,29.30,0,0,0,0.03
2013-7-18,78,64,55,60,54,50,85,73,52,29.66,29.56,0,0,0,0.00
2013-7-19,80,63,52,62,55,48,91,76,50,29.60,29.48,0,0,0,0.00
2013-7-20,76,61,52,61,55,48,91,80,59,29.52,29.40,0,0,0,0.00
2013-7-21,80,63,52,63,55,48,92,78,53,29.41,29.34,0,0,0,0.00
2013-7-22,81,65,56,63,56,52,90,76,50,29.49,29.37,0,0,0,0.00
2013-7-23,85,64,51,62,54,48,92,72,41,29.50,29.41,0,0,0,0.00
2013-7-24,83,65,52,61,54,48,91,68,39,29.49,29.43,0,0,0,0.00
2013-7-25,85,65,50,59,52,46,89,67,37,29.53,29.47,0,0,0,0.00
2013-7-26,83,65,52,58,52,47,88,66,39,29.59,29.51,0,0,0,0.00
2013-7-27,77,62,50,57,51,46,89,68,44,29.59,29.43,0,0,0,0.00
2013-7-28,73,60,52,58,52,48,88,76,56,29.45,29.38,0,0,0,0.00
2013-7-29,77,61,50,59,52,46,92,74,48,29.44,29.38,0,0,0,0.00
2013-7-30,80,62,52,61,54,49,91,76,49,29.57,29.44,0,0,0,0.00
2013-7-31,74,61,52,62,55,49,92,82,63,29.55,29.43,0,0,0,0.00
2013-8-1,71,62,54,59,54,52,90,78,62,29.49,29.45,0,0,0,0.00
2013-8-2,62,58,55,57,54,51,92,87,83,29.56,29.47,0,0,0,0.09
2013-8-3,73,62,55,62,57,52,93,84,63,29.57,29.49,0,0,0,0.00
2013-8-4,78,64,52,62,56,49,94,77,52,29.50,29.38,0,0,0,0.00
2013-8-5,84,66,53,64,56,50,92,72,43,29.45,29.37,0,0,0,0.00
2013-8-6,86,66,50,61,53,46,92,68,38,29.44,29.36,0,0,0,0.38
2013-8-7,86,66,52,61,54,48,91,68,37,29.45,29.38,0,0,0,0.00
2013-8-8,83,65,54,62,55,50,89,72,45,29.47,29.38,0,0,0,0.00
2013-8-9,84,67,53,62,55,49,90,69,43,29.40,29.28,0,0,0,0.00
2013-8-10,77,64,58,65,59,55,92,83,62,29.44,29.31,0,0,0,0.23
2013-8-11,73,62,57,61,56,52,90,80,61,29.50,29.43,0,0,0,0.00
2013-8-12,81,65,56,61,55,51,87,73,42,29.50,29.44,0,0,0,0.00
2013-8-13,81,64,53,62,54,50,92,73,46,29.53,29.37,0,0,0,0.00
2013-8-14,83,64,54,62,56,49,90,76,35,29.39,29.33,0,0,0,0.09
2013-8-15,71,64,61,66,61,58,93,90,83,29.43,29.35,0,0,0,0.02
2013-8-16,85,69,59,67,60,54,94,77,42,29.44,29.38,0,0,0,0.01
2013-8-17,76,64,55,63,57,51,90,77,60,29.51,29.43,0,0,0,0.00
2013-8-18,79,64,57,63,56,52,90,76,55,29.55,29.50,0,0,0,0.00
2013-8-19,77,64,58,67,56,52,92,77,58,29.54,29.50,0,0,0,0.00
2013-8-20,76,64,54,56,50,45,83,63,34,29.60,29.51,0,0,0,0.00
2013-8-21,82,63,47,56,49,43,90,63,34,29.52,29.38,0,0,0,0.00
2013-8-22,81,65,51,58,51,45,82,64,41,29.39,29.24,0,0,0,0.00
2013-8-23,80,65,58,59,54,52,85,70,44,29.32,29.26,0,0,0,0.00
2013-8-24,73,62,55,60,55,50,90,79,59,29.35,29.29,0,0,0,0.05
2013-8-25,72,61,51,57,53,48,92,74,54,29.38,29.30,0,0,0,0.00
2013-8-26,77,62,54,59,53,49,88,74,41,29.39,29.28,0,0,0,0.03
2013-8-27,78,65,57,63,58,54,92,78,54,29.39,29.23,0,0,0,0.13
2013-8-28,79,66,58,65,59,55,93,80,54,29.33,29.26,0,0,0,0.16
2013-8-29,70,64,62,66,62,59,94,91,84,29.43,29.29,0,0,0,1.01
2013-8-30,77,65,56,62,57,50,92,75,51,29.57,29.42,0,0,0,0.00
2013-8-31,76,63,51,61,55,48,93,76,54,29.52,29.28,0,0,0,0.00
2013-9-1,83,64,55,66,56,51,92,77,51,29.32,29.23,0,0,0,0.00
2013-9-2,78,66,57,64,57,52,89,74,51,29.38,29.30,0,0,0,0.00
2013-9-3,73,62,57,66,58,53,93,86,72,29.47,29.37,0,0,0,0.41
2013-9-4,70,61,55,63,58,52,94,88,77,29.49,29.43,0,0,0,0.06
2013-9-5,65,61,58,61,58,55,95,92,85,29.48,29.36,0,0,0,0.07
2013-9-6,69,62,59,66,60,57,95,93,82,29.53,29.36,0,0,0,0.03
2013-9-7,69,61,56,63,58,54,96,89,75,29.52,29.46,0,0,0,0.00
2013-9-8,78,63,52,64,57,50,96,83,57,29.54,29.46,0,0,0,0.00
2013-9-9,75,61,52,64,56,49,94,83,60,29.50,29.42,0,0,0,0.00
2013-9-10,79,63,50,65,56,48,94,79,55,29.43,29.33,0,0,0,0.01
2013-9-11,87,69,56,67,59,52,90,73,46,29.38,29.32,0,0,0,0.00
2013-9-12,80,65,56,65,58,53,92,79,53,29.43,29.34,0,0,0,0.00
2013-9-13,67,61,56,62,58,53,93,88,82,29.40,29.30,0,0,0,0.01
2013-9-14,68,61,56,61,58,54,93,88,75,29.32,29.17,0,0,0,0.01
2013-9-15,64,59,54,61,57,52,95,93,90,29.24,29.13,0,0,0,0.21
2013-9-16,65,59,55,61,57,53,95,93,85,29.36,29.21,0,0,0,0.37
2013-9-17,62,56,52,58,54,50,95,92,79,29.37,29.29,0,0,0,0.01
2013-9-18,67,57,52,58,52,49,95,85,62,29.50,29.36,0,0,0,0.00
2013-9-19,77,51,47,56,48,45,95,90,46,29.47,29.22,0,0,0,0.00
2013-9-20,58,58,58,52,52,52,80,80,80,29.07,29.07,0,0,0,0.00
2013-9-21,67,59,52,58,53,49,93,82,67,29.15,29.10,0,0,0,0.00
2013-9-22,59,55,53,56,52,50,95,90,85,29.14,28.97,0,0,0,0.73
2013-9-23,64,54,50,56,50,47,93,88,70,29.39,29.14,0,0,0,0.04
2013-9-24,63,51,45,53,48,43,94,87,66,29.37,29.26,0,0,0,0.13
2013-9-25,60,51,47,51,47,44,94,86,69,29.45,29.28,0,0,0,0.06
2013-9-26,59,49,43,53,46,41,94,87,72,29.54,29.44,0,0,0,0.00
2013-9-27,57,52,47,53,49,44,93,90,84,29.53,29.25,0,0,0,0.03
2013-9-28,58,53,49,56,52,47,95,94,91,29.25,28.74,0,0,0,1.69
2013-9-29,52,50,48,51,49,46,96,95,93,28.95,28.55,0,0,0,1.68
2013-9-30,58,50,46,53,46,43,96,89,72,29.32,28.81,0,0,0,0.12
2013-10-1,58,50,45,50,45,42,94,86,67,29.51,29.31,0,0,0,0.11
2013-10-2,56,48,44,50,46,42,93,89,78,29.60,29.46,0,0,0,0.33
2013-10-3,55,47,43,51,45,41,95,92,85,29.86,29.60,0,0,0,0.00
2013-10-4,61,48,38,55,45,37,96,89,75,29.88,29.76,0,0,0,0.01
2013-10-5,65,51,41,55,46,40,95,86,59,29.77,29.55,0,0,0,0.00
2013-10-6,72,56,44,54,46,40,95,74,38,29.55,29.29,0,0,0,0.07
2013-10-7,61,53,46,52,48,43,92,84,64,29.42,29.27,0,0,0,0.02
2013-10-8,54,47,42,51,44,40,94,91,85,29.49,29.37,0,0,0,0.37
2013-10-9,56,46,38,49,42,36,95,88,74,29.55,29.37,0,0,0,0.00
2013-10-10,56,49,42,50,45,40,94,88,76,29.49,29.35,0,0,0,0.01
2013-10-11,55,50,47,51,47,45,94,89,78,29.56,29.48,0,0,0,0.01
2013-10-12,55,49,43,50,46,41,94,90,77,29.63,29.48,0,0,0,0.08
2013-10-13,55,46,39,49,42,37,95,89,74,29.78,29.62,0,0,0,0.00
2013-10-14,56,46,39,50,43,37,95,89,69,29.84,29.77,0,0,0,0.01
2013-10-15,60,47,40,53,44,38,95,89,76,29.80,29.60,0,0,0,0.00
2013-10-16,56,49,42,51,46,40,95,89,79,29.61,29.56,0,0,0,0.00
2013-10-17,54,48,44,49,46,41,95,91,82,29.69,29.61,0,0,0,0.00
2013-10-18,56,46,40,53,44,38,96,93,86,29.66,29.57,0,0,0,0.01
2013-10-19,49,45,41,47,43,40,96,94,93,29.61,29.55,0,0,0,0.00
2013-10-20,48,46,45,45,43,41,93,89,84,29.62,29.56,0,0,0,0.01
2013-10-21,50,46,45,42,39,34,84,76,65,29.59,29.52,0,0,0,0.01
2013-10-22,54,46,43,43,31,24,68,55,43,29.54,29.45,0,0,0,0.00
2013-10-23,58,47,40,44,23,15,62,40,27,29.47,29.40,0,0,0,0.00
2013-10-24,50,44,38,15,6,-6,30,22,11,29.53,29.44,0,0,0,0.01
2013-10-25,52,48,46,-3,-6,-8,11,6,1,29.73,29.53,0,0,0,0.04
2013-10-26,54,50,48,42,10,-6,65,22,1,29.74,29.60,0,0,0,0.00
2013-10-27,58,52,46,46,17,-7,71,30,1,29.61,29.31,0,0,0,0.13
2013-10-28,55,51,42,38,32,28,63,49,39,29.36,29.31,0,0,0,0.00
2013-10-29,54,43,35,40,31,17,71,64,41,29.44,29.35,0,0,0,0.00
2013-10-30,53,45,37,41,26,0,68,48,18,29.52,29.44,0,0,0,0.00
2013-10-31,54,49,46,36,12,-7,63,24,1,29.67,29.46,0,0,0,0.00
2013-11-1,57,52,47,36,6,-7,46,13,1,29.68,29.24,0,0,0,0.01
2013-11-2,51,48,40,37,8,-7,62,20,1,29.29,28.84,0,0,0,0.39
2013-11-3,49,42,34,36,3,-17,63,21,1,29.52,29.29,0,0,0,0.01
2013-11-4,47,41,35,32,2,-16,56,19,1,29.59,29.45,0,0,0,0.00
2013-11-5,48,45,42,-6,-8,-11,11,1,1,29.66,29.41,0,0,0,0.03
2013-11-6,50,46,42,-4,-7,-10,1,1,1,29.73,29.43,0,0,0,0.11
2013-11-7,52,48,46,-3,-6,-8,1,1,1,29.43,29.09,0,0,0,0.97
2013-11-8,50,45,40,-5,-8,-12,1,1,1,29.56,29.36,0,0,0,0.00
2013-11-9,48,44,40,-6,-9,-12,1,1,1,29.55,29.49,0,0,0,0.07
2013-11-10,49,46,43,-5,-8,-10,1,1,1,29.56,29.51,0,0,0,0.11
2013-11-11,55,47,41,-1,-7,-11,5,1,1,29.58,29.42,0,0,0,0.00
2013-11-12,55,51,47,0,-4,-7,12,1,1,29.75,29.42,0,0,0,0.29
2013-11-13,54,50,45,-1,-5,-9,1,1,1,29.84,29.72,0,0,0,0.00
2013-11-14,49,46,41,-5,-8,-12,1,1,1,29.72,29.46,0,0,0,0.13
2013-11-15,47,43,41,-7,-10,-12,1,1,1,29.47,28.73,0,0,0,0.01
2013-11-16,47,41,35,3,-12,-16,20,2,1,29.17,28.75,0,0,0,0.00
2013-11-17,51,44,38,-4,-9,-14,1,1,1,29.29,29.16,0,0,0,0.01
2013-11-18,50,47,42,-5,-7,-10,1,1,1,29.29,28.94,0,0,0,0.99
2013-11-19,50,41,34,-4,-11,-44,10,1,1,29.47,28.94,0,0,0,0.33
2013-11-20,40,35,31,19,-10,-33,42,11,1,29.90,29.47,0,0,0,0.01
2013-11-21,40,33,28,19,-12,-21,45,10,1,30.06,29.89,0,0,0,0.00
2013-11-22,43,35,30,17,-13,-20,35,6,1,30.04,29.85,0,0,0,0.01
2013-11-23,47,38,32,27,-12,-18,47,4,1,29.85,29.61,0,0,0,0.00
2013-11-24,46,38,33,-8,-14,-18,1,1,1,29.65,29.57,0,0,0,0.01
2013-11-25,56,36,32,0,-15,-18,1,1,1,29.71,29.65,0,0,0,0.00
2013-11-26,48,40,31,-6,-12,-19,1,1,1,29.67,29.49,0,0,0,0.01
2013-11-27,52,44,38,-3,-9,-14,1,1,1,29.50,29.38,0,0,0,0.00
2013-11-28,47,40,34,-7,-13,-17,1,1,1,29.54,29.43,0,0,0,0.00
2013-11-29,46,44,41,-7,-9,-11,1,1,1,29.71,29.65,0,0,0,0.01
2013-11-30,50,47,44,-4,-7,-10,1,1,1,29.71,29.48,0,0,0,0.00
2013-12-1,53,49,43,-2,-5,-10,1,1,1,29.47,29.14,0,0,0,0.04
2013-12-2,42,37,33,19,-14,-18,50,2,1,29.45,29.21,0,0,0,0.01
2013-12-3,38,33,30,22,19,14,61,55,47,29.70,29.45,0,0,0,0.00
2013-12-4,36,29,26,23,11,-4,60,47,26,29.74,29.68,0,0,0,0.00
2013-12-5,34,28,24,-2,-19,-25,26,7,1,29.72,29.58,0,0,0,0.00
2013-12-6,31,27,23,16,7,-22,60,46,10,29.63,29.54,0,0,0,0.00
2013-12-7,28,21,18,13,9,7,64,60,48,29.81,29.62,0,0,0,0.00
2013-12-8,32,22,17,19,9,3,63,57,47,29.95,29.80,0,0,0,0.00
2013-12-9,31,28,21,17,8,-10,55,43,18,29.96,29.87,0,0,0,0.00
2013-12-10,38,32,26,-14,-18,-23,10,2,1,29.88,29.82,0,0,0,0.00
2013-12-11,38,32,29,-14,-18,-21,1,1,1,29.81,29.56,0,0,0,0.00
2013-12-12,43,38,30,-10,-14,-20,7,1,1,29.55,29.43,0,0,0,0.01
2013-12-13,46,42,38,-7,-10,-13,1,1,1,29.81,29.51,0,0,0,0.00
2013-12-14,48,45,43,-6,-8,-10,1,1,1,29.82,29.71,0,0,0,0.08
2013-12-15,53,47,45,-2,-7,-8,1,1,1,29.85,29.70,0,0,0,0.05
2013-12-16,47,43,38,-7,-10,-14,1,1,1,29.89,29.67,0,0,0,0.02
2013-12-17,41,39,38,-12,-13,-14,1,1,1,29.67,29.51,0,0,0,0.01
2013-12-18,42,39,33,-11,-13,-17,1,1,1,29.55,29.42,0,0,0,0.07
2013-12-19,39,35,33,21,8,-16,52,34,1,29.74,29.56,0,0,0,0.00
2013-12-20,40,36,32,-12,-16,-18,11,1,1,29.59,29.11,0,0,0,0.05
2013-12-21,42,40,39,-11,-12,-13,1,1,1,29.56,29.25,0,0,0,0.09
2013-12-22,46,43,40,-8,-10,-12,1,1,1,29.69,29.55,0,0,0,0.03
2013-12-23,53,46,35,0,-8,-16,12,1,1,29.90,29.52,0,0,0,0.01
2013-12-24,44,37,32,-9,-14,-18,1,1,1,30.02,29.91,0,0,0,0.00
2013-12-25,40,34,31,-12,-16,-20,1,1,1,29.93,29.80,0,0,0,0.00
2013-12-26,42,35,32,-11,-16,-19,1,1,1,29.80,29.60,0,0,0,0.00
2013-12-27,42,37,31,-11,-14,-19,1,1,1,29.76,29.49,0,0,0,0.01
2013-12-28,45,40,34,-8,-12,-17,1,1,1,29.92,29.77,0,0,0,0.00
2013-12-29,42,39,35,-11,-13,-16,1,1,1,29.88,29.71,0,0,0,0.00
2013-12-30,41,38,37,-12,-13,-14,1,1,1,29.72,29.52,0,0,0,0.01
2013-12-31,43,40,36,-10,-13,-16,1,1,1,29.77,29.58,0,0,0,0.01
2014-1-1,41,39,36,-11,-13,-15,1,1,1,29.81,29.64,0,0,0,0.02
2014-1-2,53,44,39,16,-9,-13,24,2,1,29.64,29.28,0,0,0,0.11